KV5W Weather Reports


Display with metric or nautical units.
time (UTC)temp
F
wind
direction
speed
MPH
gust
MPH
rain 1hr
in
rain 24hr
in
rain mn
in
humidity
%
barometer
mb
20260506154529 59 306 1.0 6.0 0.00 0.01 0.01 84 1013.5
20260506153022 59 299 2.0 5.0 0.00 0.01 0.01 84 1012.9
20260506151523 59 209 0.0 8.0 0.00 0.01 0.01 84 1012.7
20260506150007 60 286 0.0 6.0 0.00 0.01 0.01 84 1012.9
20260506144523 60 302 1.0 4.0 0.00 0.01 0.01 84 1012.7
20260506143017 59 264 0.0 3.0 0.00 0.01 0.01 85 1012.4
20260506141518 59 266 0.0 7.0 0.00 0.01 0.01 85 1012.0
20260506140004 59 251 0.0 5.0 0.00 0.01 0.01 86 1011.9
20260506134507 60 250 1.0 4.0 0.00 0.01 0.01 87 1011.7
20260506133012 60 313 3.0 7.0 0.00 0.01 0.01 86 1011.7
20260506131519 61 253 2.0 7.0 0.00 0.01 0.01 86 1011.6
20260506130018 62 263 2.0 9.0 0.00 0.01 0.01 86 1011.4
20260506124504 62 343 0.0 5.0 0.01 0.01 0.01 86 1011.0
20260506123010 63 271 1.0 7.0 0.01 0.01 0.01 85 1010.6
20260506121518 64 292 0.0 3.0 0.01 0.01 0.01 84 1010.6
20260506120026 65 290 0.0 3.0 0.01 0.01 0.01 83 1010.3
20260506114522 66 307 0.0 3.0 0.00 0.00 0.00 82 1010.1
20260506113008 68 286 1.0 3.0 0.00 0.00 0.00 80 1009.9
20260506111514 70 346 0.0 3.0 0.00 0.00 0.00 78 1009.5
20260506110023 72 275 0.0 2.0 0.00 0.00 0.00 79 1009.3
20260506104527 74 291 2.0 4.0 0.00 0.00 0.00 86 1009.1
20260506103024 74 34 0.0 0.0 0.00 0.00 0.00 87 1008.8
20260506101512 74 57 0.0 0.0 0.00 0.00 0.00 87 1008.7
20260506100024 74 125 0.0 0.0 0.00 0.00 0.00 86 1008.7
20260506094526 74 360 0.0 3.0 0.00 0.00 0.00 86 1008.5
20260506093031 74 51 0.0 0.0 0.00 0.00 0.00 86 1008.8
20260506091522 74 9 0.0 2.0 0.00 0.00 0.00 86 1008.6
20260506090016 74 23 0.0 0.0 0.00 0.00 0.00 86 1008.7
20260506084518 74 65 0.0 2.0 0.00 0.00 0.00 86 1008.6
20260506083031 74 53 0.0 4.0 0.00 0.00 0.00 87 1008.5
20260506081526 74 34 0.0 2.0 0.00 0.00 0.00 87 1008.5
20260506073023 74 90 0.0 2.0 0.00 0.00 0.00 86 1008.6
20260506071505 74 148 0.0 2.0 0.00 0.00 0.00 85 1008.4
20260506061526 75 76 0.0 2.0 0.00 0.00 0.00 84 1008.7
20260506044512 76 51 1.0 3.0 0.00 0.00 0.00 82 1008.2
20260506043019 76 350 0.0 3.0 0.00 0.00 0.00 81 1008.2
20260506041522 76 55 0.0 3.0 0.00 0.00 0.00 81 1007.9
20260506040028 76 71 1.0 4.0 0.00 0.00 0.00 81 1007.6
20260506034526 77 126 1.0 4.0 0.00 0.00 0.00 80 1007.5
20260506033020 77 145 0.0 4.0 0.00 0.00 0.00 80 1007.2
20260506031539 77 131 0.0 4.0 0.00 0.00 0.00 80 1007.2
20260506030029 77 113 0.0 2.0 0.00 0.00 0.00 79 1007.1
20260506024533 78 72 0.0 2.0 0.00 0.00 0.00 78 1006.9
20260506023012 78 130 0.0 3.0 0.00 0.00 0.00 78 1006.7
20260506021520 79 76 0.0 3.0 0.00 0.00 0.00 77 1006.7
20260506020022 79 88 0.0 2.0 0.00 0.00 0.00 77 1006.8
20260506014526 80 107 0.0 2.0 0.00 0.00 0.00 76 1006.5
20260506013027 80 83 0.0 2.0 0.00 0.00 0.00 75 1006.6
20260506011518 80 40 0.0 0.0 0.00 0.00 0.00 74 1006.3
20260506010046 81 42 0.0 2.0 0.00 0.00 0.00 73 1006.0
20260506004526 81 128 0.0 3.0 0.00 0.00 0.00 72 1005.6
20260506003030 82 287 1.0 4.0 0.00 0.00 0.00 71 1005.6
20260506001530 82 81 0.0 2.0 0.00 0.00 0.00 70 1005.5
20260506000029 83 76 1.0 5.0 0.00 0.00 0.00 69 1005.8
20260505234503 83 311 0.0 3.0 0.00 0.00 0.00 69 1005.8
20260505233009 83 74 0.0 3.0 0.00 0.00 0.00 68 1005.6
20260505231513 84 74 0.0 3.0 0.00 0.00 0.00 67 1005.3
20260505230025 84 5 0.0 4.0 0.00 0.00 0.00 66 1005.2
20260505224522 85 50 1.0 3.0 0.00 0.00 0.00 66 1005.1
20260505223007 85 169 0.0 6.0 0.00 0.00 0.00 66 1005.2
20260505221512 86 42 1.0 6.0 0.00 0.00 0.00 64 1005.1
20260505220019 86 330 0.0 4.0 0.00 0.00 0.00 65 1005.4
20260505214521 86 59 0.0 7.0 0.00 0.00 0.00 64 1005.6
20260505213027 86 99 0.0 4.0 0.00 0.00 0.00 63 1005.9
20260505211508 87 25 0.0 4.0 0.00 0.00 0.00 63 1005.9
20260505210014 86 243 1.0 6.0 0.00 0.00 0.00 65 1006.0
20260505204521 85 9 1.0 9.0 0.00 0.00 0.00 66 1006.0
20260505203030 85 45 2.0 6.0 0.00 0.00 0.00 66 1006.1
20260505201510 85 149 2.0 5.0 0.00 0.00 0.00 65 1006.3
20260505200032 84 243 0.0 4.0 0.00 0.00 0.00 66 1006.5
20260505194518 85 17 1.0 4.0 0.00 0.00 0.00 66 1006.7
20260505193020 83 57 1.0 11.0 0.00 0.00 0.00 68 1006.9
20260505191526 83 21 2.0 5.0 0.00 0.00 0.00 66 1006.7
20260505190010 82 19 1.0 7.0 0.00 0.00 0.00 71 1006.7
20260505184516 81 51 1.0 5.0 0.00 0.00 0.00 71 1007.0
20260505183019 81 92 3.0 10.0 0.00 0.00 0.00 71 1007.1
20260505181522 80 81 1.0 9.0 0.00 0.00 0.00 71 1007.1
20260505180026 80 109 1.0 7.0 0.00 0.00 0.00 72 1007.4
20260505174510 80 236 0.0 5.0 0.00 0.00 0.00 71 1007.5
20260505173016 80 16 1.0 8.0 0.00 0.00 0.00 72 1007.2
20260505171535 80 58 0.0 6.0 0.00 0.00 0.00 73 1007.4
20260505170025 79 26 2.0 8.0 0.00 0.00 0.00 73 1007.4
20260505164528 78 76 1.0 6.0 0.00 0.00 0.00 76 1007.7
20260505163014 77 46 1.0 8.0 0.00 0.00 0.00 76 1007.6
20260505161519 75 339 0.0 5.0 0.00 0.00 0.00 79 1007.7